[Date Prev][Date Next][Thread Prev][Thread Next] - [Date Index][Thread Index][Author Index]
2 Line ISS Keps 1-13
- Subject: [sarex] 2 Line ISS Keps 1-13
- From: "Dave Larsen PhD" <doc@xxxxxxxxxxx>
- Date: Sun, 13 Jan 2002 02:33:58 -0800
ISS
1 25544U 98067A 02013.13104458 .00062397 00000-0 85023-3 0 9529
2 25544 51.6419 112.2131 0006947 297.8313 130.8524 15.56903524179840
----
Via the sarex mailing list at AMSAT.ORG courtesy of AMSAT-NA.
To unsubscribe, send "unsubscribe sarex" to Majordomo@amsat.org
AMSAT Home